User: anonymous   Login
Location: Unspecified
(0.0000°N, 0.0000°E)
Time: 07:51:16
(UTC+00:00)
Language:

COSMOS 2483 - Orbit

View from above orbital plane
View from above orbital plane
View from above satellite
View from above satellite

Ground track
Ground track

The orbit data is extracted from the following two-line orbital elements,

1 39058U 13001B   17328.44889802 +.00000033 +00000-0 +16460-3 0  9990
2 39058 082.5029 003.4610 0016413 012.0942 348.0532 12.43946491220529
Epoch (UTC): 24 November 2017 10:46:24
Eccentricity: 0.0016413
inclination: 82.5029°
perigee height: 1477 km
apogee height: 1503 km
right ascension of ascending node: 3.4610°
argument of perigee: 12.0942°
revolutions per day: 12.43946491
mean anomaly at epoch: 348.0532°
orbit number at epoch: 22052

The dashed part of the orbit path shows where the satellite is in the earth's shadow,  

DLR